Time,TemperatureF,DewpointF,PressureIn,WindDirection,WindDirectionDegrees,WindSpeedMPH,WindSpeedGustMPH,Humidity,HourlyPrecipIn,Conditions,Clouds,dailyrainin,SoftwareType,DateUTC
2013-12-07 00:02:00,37.1,24.9,27.42,NW,315,0.0,0.2,61,0.00,,,0.00,WUHU216HW,2013-12-07 07:02:00,
2013-12-07 00:07:00,37.1,25.3,27.42,NW,315,0.0,0.2,62,0.00,,,0.00,WUHU216HW,2013-12-07 07:07:00,
2013-12-07 00:12:00,36.9,25.1,27.42,NW,315,0.0,0.0,62,0.00,,,0.00,WUHU216HW,2013-12-07 07:12:00,
2013-12-07 00:17:00,36.9,25.1,27.42,NW,315,0.0,0.0,62,0.00,,,0.00,WUHU216HW,2013-12-07 07:17:00,
2013-12-07 00:22:00,36.5,25.1,27.42,NNW,338,0.0,0.0,63,0.00,,,0.00,WUHU216HW,2013-12-07 07:22:00,
2013-12-07 00:27:00,36.4,25.4,27.42,NNW,338,0.0,0.2,64,0.00,,,0.00,WUHU216HW,2013-12-07 07:27:00,
2013-12-07 00:32:00,36.2,25.6,27.41,NW,315,0.0,0.2,65,0.00,,,0.00,WUHU216HW,2013-12-07 07:32:00,
2013-12-07 00:37:00,36.0,25.4,27.41,NW,315,0.0,0.2,65,0.00,,,0.00,WUHU216HW,2013-12-07 07:37:00,
2013-12-07 00:42:00,36.0,25.4,27.41,NW,315,0.0,0.0,65,0.00,,,0.00,WUHU216HW,2013-12-07 07:42:00,
2013-12-07 00:47:00,35.8,25.2,27.41,NW,315,0.0,0.0,65,0.00,,,0.00,WUHU216HW,2013-12-07 07:47:00,
2013-12-07 00:52:00,35.6,25.0,27.41,NW,315,0.0,0.0,65,0.00,,,0.00,WUHU216HW,2013-12-07 07:52:00,
2013-12-07 00:57:00,35.5,25.2,27.41,NW,315,0.0,0.0,66,0.00,,,0.00,WUHU216HW,2013-12-07 07:57:00,
2013-12-07 01:02:00,35.5,25.2,27.41,NW,315,0.0,0.0,66,0.00,,,0.00,WUHU216HW,2013-12-07 08:02:00,
2013-12-07 01:07:00,35.5,25.6,27.41,NW,315,0.0,0.0,67,0.00,,,0.00,WUHU216HW,2013-12-07 08:07:00,
2013-12-07 01:12:00,35.3,25.4,27.40,NW,315,0.0,0.0,67,0.00,,,0.00,WUHU216HW,2013-12-07 08:12:00,
2013-12-07 01:17:00,35.3,25.4,27.40,NW,315,0.0,0.0,67,0.00,,,0.00,WUHU216HW,2013-12-07 08:17:00,
2013-12-07 01:22:00,35.3,26.1,27.40,NW,315,0.0,0.2,69,0.00,,,0.00,WUHU216HW,2013-12-07 08:22:00,
2013-12-07 01:27:00,35.3,26.5,27.40,NNW,338,0.0,0.9,70,0.00,,,0.00,WUHU216HW,2013-12-07 08:27:00,
2013-12-07 01:32:00,35.3,26.1,27.40,NNW,338,0.0,0.9,69,0.00,,,0.00,WUHU216HW,2013-12-07 08:32:00,
2013-12-07 01:37:00,35.1,25.9,27.40,NNW,338,0.0,0.4,69,0.00,,,0.00,WUHU216HW,2013-12-07 08:37:00,
2013-12-07 01:42:00,35.1,25.9,27.40,NNW,338,0.0,0.0,69,0.00,,,0.00,WUHU216HW,2013-12-07 08:42:00,
2013-12-07 01:47:00,35.1,26.3,27.40,NW,315,0.0,0.4,70,0.00,,,0.00,WUHU216HW,2013-12-07 08:47:00,
2013-12-07 01:52:00,35.1,25.9,27.40,NNW,338,0.0,0.4,69,0.00,,,0.00,WUHU216HW,2013-12-07 08:52:00,
2013-12-07 01:57:00,34.9,26.1,27.40,North,0,0.4,0.4,70,0.00,,,0.00,WUHU216HW,2013-12-07 08:57:00,
2013-12-07 02:02:00,34.9,26.5,27.40,NNW,338,0.4,0.9,71,0.00,,,0.00,WUHU216HW,2013-12-07 09:02:00,
2013-12-07 02:07:00,34.7,26.6,27.40,NNE,23,0.7,0.9,72,0.00,,,0.00,WUHU216HW,2013-12-07 09:07:00,
2013-12-07 02:12:00,34.6,26.7,27.40,NNW,338,0.4,1.1,73,0.00,,,0.00,WUHU216HW,2013-12-07 09:12:00,
2013-12-07 02:17:00,34.4,26.6,27.40,NW,315,0.2,1.1,73,0.00,,,0.00,WUHU216HW,2013-12-07 09:17:00,
2013-12-07 02:22:00,34.2,26.4,27.40,NW,315,0.0,1.1,73,0.00,,,0.00,WUHU216HW,2013-12-07 09:22:00,
2013-12-07 02:27:00,34.2,26.4,27.40,NNW,338,0.0,1.1,73,0.00,,,0.00,WUHU216HW,2013-12-07 09:27:00,
2013-12-07 02:32:00,34.2,26.4,27.40,NNW,338,0.0,0.9,73,0.00,,,0.00,WUHU216HW,2013-12-07 09:32:00,
2013-12-07 02:37:00,34.2,26.4,27.40,NNW,338,0.0,0.9,73,0.00,,,0.00,WUHU216HW,2013-12-07 09:37:00,
2013-12-07 02:42:00,34.0,25.8,27.40,NW,315,0.4,0.4,72,0.00,,,0.00,WUHU216HW,2013-12-07 09:42:00,
2013-12-07 02:47:00,34.0,26.2,27.40,NW,315,0.4,0.7,73,0.00,,,0.00,WUHU216HW,2013-12-07 09:47:00,
2013-12-07 02:52:00,34.0,26.2,27.40,NW,315,0.2,1.1,73,0.00,,,0.00,WUHU216HW,2013-12-07 09:52:00,
2013-12-07 02:57:00,34.2,26.4,27.40,WNW,293,0.2,1.1,73,0.00,,,0.00,WUHU216HW,2013-12-07 09:57:00,
2013-12-07 03:02:00,34.2,26.0,27.40,NNW,338,0.2,0.4,72,0.00,,,0.00,WUHU216HW,2013-12-07 10:02:00,
2013-12-07 03:07:00,34.2,26.4,27.40,WNW,293,0.2,0.7,73,0.00,,,0.00,WUHU216HW,2013-12-07 10:07:00,
2013-12-07 03:12:00,34.2,26.6,27.40,WNW,293,0.7,1.1,74,0.00,,,0.00,WUHU216HW,2013-12-07 10:12:00,
2013-12-07 03:17:00,34.2,26.4,27.40,NNW,338,0.4,1.1,73,0.00,,,0.00,WUHU216HW,2013-12-07 10:17:00,
2013-12-07 03:22:00,34.0,26.2,27.40,NNW,338,0.2,1.1,73,0.00,,,0.00,WUHU216HW,2013-12-07 10:22:00,
2013-12-07 03:27:00,34.2,26.4,27.40,NW,315,0.4,0.7,73,0.00,,,0.00,WUHU216HW,2013-12-07 10:27:00,
2013-12-07 03:32:00,34.2,26.0,27.40,NNW,338,0.0,0.7,72,0.00,,,0.00,WUHU216HW,2013-12-07 10:32:00,
2013-12-07 03:37:00,34.2,26.0,27.40,NNE,23,0.0,0.4,72,0.00,,,0.00,WUHU216HW,2013-12-07 10:37:00,
2013-12-07 03:42:00,34.2,26.0,27.41,North,0,0.4,0.7,72,0.00,,,0.00,WUHU216HW,2013-12-07 10:42:00,
2013-12-07 03:47:00,34.2,26.0,27.40,NNW,338,0.4,1.1,72,0.00,,,0.00,WUHU216HW,2013-12-07 10:47:00,
2013-12-07 03:52:00,34.2,26.0,27.41,NW,315,0.4,1.1,72,0.00,,,0.00,WUHU216HW,2013-12-07 10:52:00,
2013-12-07 03:57:00,34.2,26.0,27.41,NNW,338,0.2,0.7,72,0.00,,,0.00,WUHU216HW,2013-12-07 10:57:00,
2013-12-07 04:01:00,34.0,26.2,27.41,NNW,338,0.0,0.4,73,0.00,,,0.00,WUHU216HW,2013-12-07 11:01:00,
2013-12-07 04:06:00,34.0,26.2,27.40,NNW,338,0.7,0.7,73,0.00,,,0.00,WUHU216HW,2013-12-07 11:06:00,
2013-12-07 04:11:00,34.0,26.2,27.40,NNW,338,0.0,0.7,73,0.00,,,0.00,WUHU216HW,2013-12-07 11:11:00,
2013-12-07 04:16:00,33.8,25.7,27.40,NNW,338,0.0,0.7,72,0.00,,,0.00,WUHU216HW,2013-12-07 11:16:00,
2013-12-07 04:21:00,33.8,25.7,27.40,NNW,338,0.0,0.2,72,0.00,,,0.00,WUHU216HW,2013-12-07 11:21:00,
2013-12-07 04:26:00,33.8,26.0,27.40,NNW,338,0.0,0.4,73,0.00,,,0.00,WUHU216HW,2013-12-07 11:26:00,
2013-12-07 04:31:00,33.8,26.0,27.40,North,0,0.0,0.4,73,0.00,,,0.00,WUHU216HW,2013-12-07 11:31:00,
2013-12-07 04:36:00,33.8,26.0,27.41,NNW,338,0.0,1.1,73,0.00,,,0.00,WUHU216HW,2013-12-07 11:36:00,
2013-12-07 04:41:00,33.8,26.0,27.40,North,0,0.2,1.1,73,0.00,,,0.00,WUHU216HW,2013-12-07 11:41:00,
2013-12-07 04:46:00,33.7,25.8,27.40,West,270,0.4,1.1,73,0.00,,,0.00,WUHU216HW,2013-12-07 11:46:00,
2013-12-07 04:51:00,33.7,26.5,27.40,NNW,338,1.3,1.3,75,0.00,,,0.00,WUHU216HW,2013-12-07 11:51:00,
2013-12-07 04:56:00,33.7,26.5,27.40,NNW,338,0.7,2.0,75,0.00,,,0.00,WUHU216HW,2013-12-07 11:56:00,
2013-12-07 05:01:00,33.7,26.8,27.39,North,0,1.3,2.5,76,0.00,,,0.00,WUHU216HW,2013-12-07 12:01:00,
2013-12-07 05:06:00,33.7,26.8,27.39,North,0,0.9,2.5,76,0.00,,,0.00,WUHU216HW,2013-12-07 12:06:00,
2013-12-07 05:11:00,33.7,26.8,27.39,North,0,0.7,2.0,76,0.00,,,0.00,WUHU216HW,2013-12-07 12:11:00,
2013-12-07 05:16:00,33.7,26.8,27.39,NNW,338,0.7,2.0,76,0.00,,,0.00,WUHU216HW,2013-12-07 12:16:00,
2013-12-07 05:21:00,33.7,26.8,27.38,NNW,338,0.7,1.8,76,0.00,,,0.00,WUHU216HW,2013-12-07 12:21:00,
2013-12-07 05:26:00,33.7,26.8,27.38,North,0,0.4,2.0,76,0.00,,,0.00,WUHU216HW,2013-12-07 12:26:00,
2013-12-07 05:31:00,33.7,26.8,27.38,NW,315,2.5,2.5,76,0.00,,,0.00,WUHU216HW,2013-12-07 12:31:00,
2013-12-07 05:36:00,33.7,26.8,27.38,NNW,338,0.7,2.5,76,0.00,,,0.00,WUHU216HW,2013-12-07 12:36:00,
2013-12-07 05:41:00,33.8,27.0,27.38,NNW,338,1.1,2.5,76,0.00,,,0.00,WUHU216HW,2013-12-07 12:41:00,
2013-12-07 05:46:00,33.8,27.0,27.39,NW,315,1.3,2.0,76,0.00,,,0.00,WUHU216HW,2013-12-07 12:46:00,
2013-12-07 05:51:00,34.0,26.8,27.39,NNW,338,1.1,2.0,75,0.00,,,0.00,WUHU216HW,2013-12-07 12:51:00,
2013-12-07 05:56:00,34.2,27.0,27.39,NW,315,1.8,1.8,75,0.00,,,0.00,WUHU216HW,2013-12-07 12:56:00,
2013-12-07 06:01:00,34.2,26.6,27.39,NNE,23,0.9,1.8,74,0.00,,,0.00,WUHU216HW,2013-12-07 13:01:00,
2013-12-07 06:06:00,34.4,26.8,27.39,NNW,338,0.7,1.8,74,0.00,,,0.00,WUHU216HW,2013-12-07 13:06:00,
2013-12-07 06:11:00,34.7,26.9,27.39,NW,315,0.7,1.8,73,0.00,,,0.00,WUHU216HW,2013-12-07 13:11:00,
2013-12-07 06:16:00,34.9,27.1,27.39,NNW,338,0.7,1.8,73,0.00,,,0.00,WUHU216HW,2013-12-07 13:16:00,
2013-12-07 06:21:00,34.7,26.9,27.39,NNW,338,0.0,1.1,73,0.00,,,0.00,WUHU216HW,2013-12-07 13:21:00,
2013-12-07 06:26:00,34.4,26.6,27.39,NW,315,0.0,0.7,73,0.00,,,0.00,WUHU216HW,2013-12-07 13:26:00,
2013-12-07 06:31:00,34.2,26.0,27.39,WNW,293,0.4,1.1,72,0.00,,,0.00,WUHU216HW,2013-12-07 13:31:00,
2013-12-07 06:36:00,34.0,26.2,27.39,NW,315,0.0,1.1,73,0.00,,,0.00,WUHU216HW,2013-12-07 13:36:00,
2013-12-07 06:41:00,33.8,26.0,27.39,NW,315,0.0,0.9,73,0.00,,,0.00,WUHU216HW,2013-12-07 13:41:00,
2013-12-07 06:46:00,33.5,25.7,27.39,NW,315,0.2,0.7,73,0.00,,,0.00,WUHU216HW,2013-12-07 13:46:00,
2013-12-07 06:51:00,33.5,25.7,27.39,NW,315,0.4,0.7,73,0.00,,,0.00,WUHU216HW,2013-12-07 13:51:00,
2013-12-07 06:56:00,33.3,25.5,27.39,NW,315,0.2,0.7,73,0.00,,,0.00,WUHU216HW,2013-12-07 13:56:00,
2013-12-07 07:01:00,33.1,25.7,27.39,NW,315,0.4,0.7,74,0.00,,,0.00,WUHU216HW,2013-12-07 14:01:00,
2013-12-07 07:06:00,33.1,25.7,27.39,NW,315,0.0,0.7,74,0.00,,,0.00,WUHU216HW,2013-12-07 14:06:00,
2013-12-07 07:11:00,32.9,25.8,27.39,NW,315,0.0,0.4,75,0.00,,,0.00,WUHU216HW,2013-12-07 14:11:00,
2013-12-07 07:16:00,33.1,26.0,27.39,North,0,0.4,1.1,75,0.00,,,0.00,WUHU216HW,2013-12-07 14:16:00,
2013-12-07 07:21:00,33.1,26.3,27.39,NNW,338,0.7,1.1,76,0.00,,,0.00,WUHU216HW,2013-12-07 14:21:00,
2013-12-07 07:26:00,32.9,26.2,27.39,WNW,293,1.1,1.8,76,0.00,,,0.00,WUHU216HW,2013-12-07 14:26:00,
2013-12-07 07:31:00,32.8,26.3,27.39,North,0,1.1,2.5,77,0.00,,,0.00,WUHU216HW,2013-12-07 14:31:00,
2013-12-07 07:36:00,32.8,26.3,27.39,West,270,0.7,2.7,77,0.00,,,0.00,WUHU216HW,2013-12-07 14:36:00,
2013-12-07 07:41:00,32.9,26.5,27.39,North,0,1.1,2.7,77,0.00,,,0.00,WUHU216HW,2013-12-07 14:41:00,
2013-12-07 07:46:00,33.3,26.8,27.39,West,270,0.9,2.5,77,0.00,,,0.00,WUHU216HW,2013-12-07 14:46:00,
2013-12-07 07:51:00,33.7,26.8,27.39,NNW,338,1.8,1.8,76,0.00,,,0.00,WUHU216HW,2013-12-07 14:51:00,
2013-12-07 07:56:00,34.0,27.2,27.39,NW,315,2.0,2.5,76,0.00,,,0.00,WUHU216HW,2013-12-07 14:56:00,
2013-12-07 08:01:00,34.4,27.2,27.39,WNW,293,1.8,2.5,75,0.00,,,0.00,WUHU216HW,2013-12-07 15:01:00,
2013-12-07 08:06:00,34.7,27.5,27.40,NNW,338,1.6,2.7,75,0.00,,,0.00,WUHU216HW,2013-12-07 15:06:00,
2013-12-07 08:11:00,34.9,27.7,27.40,NNW,338,1.6,2.9,75,0.00,,,0.00,WUHU216HW,2013-12-07 15:11:00,
2013-12-07 08:16:00,35.3,27.7,27.40,WNW,293,1.6,2.9,74,0.00,,,0.00,WUHU216HW,2013-12-07 15:16:00,
2013-12-07 08:21:00,35.5,27.9,27.40,NW,315,1.8,3.1,74,0.00,,,0.00,WUHU216HW,2013-12-07 15:21:00,
2013-12-07 08:26:00,35.6,27.8,27.40,NW,315,2.2,3.1,73,0.00,,,0.00,WUHU216HW,2013-12-07 15:26:00,
2013-12-07 08:31:00,36.0,28.2,27.40,North,0,1.8,2.9,73,0.00,,,0.00,WUHU216HW,2013-12-07 15:31:00,
2013-12-07 08:36:00,36.4,28.5,27.40,North,0,1.6,3.4,73,0.00,,,0.00,WUHU216HW,2013-12-07 15:36:00,
2013-12-07 08:41:00,36.7,28.9,27.40,SW,225,2.5,3.4,73,0.00,,,0.00,WUHU216HW,2013-12-07 15:41:00,
2013-12-07 08:46:00,37.1,28.9,27.40,NNW,338,1.8,2.9,72,0.00,,,0.00,WUHU216HW,2013-12-07 15:46:00,
2013-12-07 08:51:00,37.4,29.0,27.40,NNE,23,2.0,2.9,71,0.00,,,0.00,WUHU216HW,2013-12-07 15:51:00,
2013-12-07 08:56:00,38.0,29.4,27.40,NW,315,1.1,2.9,71,0.00,,,0.00,WUHU216HW,2013-12-07 15:56:00,
2013-12-07 09:01:00,38.5,29.6,27.40,NNW,338,2.7,3.4,70,0.00,,,0.00,WUHU216HW,2013-12-07 16:01:00,
2013-12-07 09:06:00,39.1,30.1,27.40,NW,315,2.2,3.4,70,0.00,,,0.00,WUHU216HW,2013-12-07 16:06:00,
2013-12-07 09:11:00,39.4,29.7,27.40,NW,315,1.8,3.8,68,0.00,,,0.00,WUHU216HW,2013-12-07 16:11:00,
2013-12-07 09:16:00,40.0,30.3,27.40,NW,315,2.5,3.8,68,0.00,,,0.00,WUHU216HW,2013-12-07 16:16:00,
2013-12-07 09:21:00,40.7,30.5,27.40,NW,315,1.1,2.5,67,0.00,,,0.00,WUHU216HW,2013-12-07 16:21:00,
2013-12-07 09:26:00,41.0,30.9,27.40,NNW,338,1.1,2.5,67,0.00,,,0.00,WUHU216HW,2013-12-07 16:26:00,
2013-12-07 09:31:00,41.8,31.2,27.40,NNE,23,0.4,1.6,66,0.00,,,0.00,WUHU216HW,2013-12-07 16:31:00,
2013-12-07 09:36:00,42.1,31.1,27.40,North,0,0.2,1.6,65,0.00,,,0.00,WUHU216HW,2013-12-07 16:36:00,
2013-12-07 09:41:00,42.5,31.2,27.41,NNE,23,0.0,1.3,64,0.00,,,0.00,WUHU216HW,2013-12-07 16:41:00,
2013-12-07 09:46:00,42.5,30.7,27.41,South,180,0.0,1.1,63,0.00,,,0.00,WUHU216HW,2013-12-07 16:46:00,
2013-12-07 09:51:00,42.7,30.9,27.40,South,180,0.0,1.1,63,0.00,,,0.00,WUHU216HW,2013-12-07 16:51:00,
2013-12-07 09:56:00,43.0,31.2,27.41,SE,135,0.7,1.3,63,0.00,,,0.00,WUHU216HW,2013-12-07 16:56:00,
2013-12-07 10:01:00,43.7,32.0,27.41,SW,225,0.4,1.3,63,0.00,,,0.00,WUHU216HW,2013-12-07 17:01:00,
2013-12-07 10:06:00,44.1,32.0,27.41,SSE,158,1.3,1.3,62,0.00,,,0.00,WUHU216HW,2013-12-07 17:06:00,
2013-12-07 10:11:00,44.3,31.7,27.41,SE,135,0.0,1.3,61,0.00,,,0.00,WUHU216HW,2013-12-07 17:11:00,
2013-12-07 10:17:00,44.6,32.0,27.41,East,90,0.7,1.3,61,0.00,,,0.00,WUHU216HW,2013-12-07 17:17:00,
2013-12-07 10:22:00,45.5,32.5,27.41,ENE,68,0.0,1.1,60,0.00,,,0.00,WUHU216HW,2013-12-07 17:22:00,
2013-12-07 10:27:00,46.3,33.1,27.41,ENE,68,0.0,1.1,60,0.00,,,0.00,WUHU216HW,2013-12-07 17:27:00,
2013-12-07 10:32:00,46.8,33.2,27.41,ESE,113,0.2,0.7,59,0.00,,,0.00,WUHU216HW,2013-12-07 17:32:00,
2013-12-07 10:37:00,47.5,33.0,27.41,South,180,0.9,1.3,57,0.00,,,0.00,WUHU216HW,2013-12-07 17:37:00,
2013-12-07 10:42:00,47.9,32.4,27.41,NW,315,0.4,1.3,55,0.00,,,0.00,WUHU216HW,2013-12-07 17:42:00,
2013-12-07 10:47:00,49.0,32.9,27.41,ESE,113,0.9,1.6,54,0.00,,,0.00,WUHU216HW,2013-12-07 17:47:00,
2013-12-07 10:52:00,51.1,33.2,27.41,SE,135,0.7,1.6,50,0.00,,,0.00,WUHU216HW,2013-12-07 17:52:00,
2013-12-07 10:57:00,54.4,34.5,27.41,NE,45,0.9,1.3,47,0.00,,,0.00,WUHU216HW,2013-12-07 17:57:00,
2013-12-07 11:02:00,57.4,35.6,27.41,ESE,113,1.3,1.6,44,0.00,,,0.00,WUHU216HW,2013-12-07 18:02:00,
2013-12-07 11:07:00,60.1,36.3,27.42,NW,315,0.7,2.0,41,0.00,,,0.00,WUHU216HW,2013-12-07 18:07:00,
2013-12-07 11:12:00,61.9,36.6,27.41,SSE,158,0.4,2.0,39,0.00,,,0.00,WUHU216HW,2013-12-07 18:12:00,
2013-12-07 11:17:00,63.7,36.1,27.42,East,90,2.0,2.5,36,0.00,,,0.00,WUHU216HW,2013-12-07 18:17:00,
2013-12-07 11:22:00,65.2,35.9,27.42,SSE,158,0.7,4.0,34,0.00,,,0.00,WUHU216HW,2013-12-07 18:22:00,
2013-12-07 11:27:00,65.9,38.0,27.42,ESE,113,0.9,4.0,36,0.00,,,0.00,WUHU216HW,2013-12-07 18:27:00,
2013-12-07 11:32:00,65.3,33.2,27.41,NNW,338,1.1,1.8,30,0.00,,,0.00,WUHU216HW,2013-12-07 18:32:00,
2013-12-07 11:37:00,64.4,35.3,27.40,NE,45,0.0,1.8,34,0.00,,,0.00,WUHU216HW,2013-12-07 18:37:00,
2013-12-07 11:42:00,65.2,35.9,27.40,SE,135,0.7,1.8,34,0.00,,,0.00,WUHU216HW,2013-12-07 18:42:00,
2013-12-07 11:47:00,65.2,34.5,27.40,SW,225,1.6,2.2,32,0.00,,,0.00,WUHU216HW,2013-12-07 18:47:00,
2013-12-07 11:52:00,63.2,32.0,27.40,SSW,203,0.0,2.2,31,0.00,,,0.00,WUHU216HW,2013-12-07 18:52:00,
2013-12-07 11:57:00,61.6,32.0,27.40,NW,315,0.4,2.5,33,0.00,,,0.00,WUHU216HW,2013-12-07 18:57:00,
2013-12-07 12:02:00,60.8,33.5,27.39,WNW,293,2.5,2.5,36,0.00,,,0.00,WUHU216HW,2013-12-07 19:02:00,
2013-12-07 12:07:00,60.8,34.2,27.39,South,180,1.1,2.5,37,0.00,,,0.00,WUHU216HW,2013-12-07 19:07:00,
2013-12-07 12:12:00,60.8,33.5,27.38,NW,315,0.9,2.5,36,0.00,,,0.00,WUHU216HW,2013-12-07 19:12:00,
2013-12-07 12:17:00,59.9,32.7,27.38,South,180,0.0,1.8,36,0.00,,,0.00,WUHU216HW,2013-12-07 19:17:00,
2013-12-07 12:22:00,59.0,29.8,27.37,ESE,113,0.9,2.9,33,0.00,,,0.00,WUHU216HW,2013-12-07 19:22:00,
2013-12-07 12:27:00,58.3,32.0,27.37,SSE,158,1.1,2.9,37,0.00,,,0.00,WUHU216HW,2013-12-07 19:27:00,
2013-12-07 12:32:00,58.7,30.3,27.37,NW,315,1.8,2.5,34,0.00,,,0.00,WUHU216HW,2013-12-07 19:32:00,
2013-12-07 12:37:00,58.7,30.3,27.36,NNW,338,1.3,2.5,34,0.00,,,0.00,WUHU216HW,2013-12-07 19:37:00,
2013-12-07 12:42:00,58.7,30.3,27.35,North,0,1.1,1.8,34,0.00,,,0.00,WUHU216HW,2013-12-07 19:42:00,
2013-12-07 12:47:00,58.9,31.8,27.35,WNW,293,0.2,2.7,36,0.00,,,0.00,WUHU216HW,2013-12-07 19:47:00,
2013-12-07 12:52:00,59.4,29.4,27.35,NNW,338,1.8,2.7,32,0.00,,,0.00,WUHU216HW,2013-12-07 19:52:00,
2013-12-07 12:57:00,59.4,30.2,27.35,NW,315,0.0,2.5,33,0.00,,,0.00,WUHU216HW,2013-12-07 19:57:00,
2013-12-07 13:02:00,59.4,30.2,27.35,SSE,158,0.7,2.5,33,0.00,,,0.00,WUHU216HW,2013-12-07 20:02:00,
2013-12-07 13:07:00,58.7,28.8,27.34,ENE,68,1.6,2.2,32,0.00,,,0.00,WUHU216HW,2013-12-07 20:07:00,
2013-12-07 13:12:00,58.7,29.5,27.33,ESE,113,0.4,2.2,33,0.00,,,0.00,WUHU216HW,2013-12-07 20:12:00,
2013-12-07 13:17:00,59.0,30.5,27.33,NNW,338,0.2,1.6,34,0.00,,,0.00,WUHU216HW,2013-12-07 20:17:00,
2013-12-07 13:22:00,59.8,32.6,27.33,SSW,203,1.6,2.2,36,0.00,,,0.00,WUHU216HW,2013-12-07 20:22:00,
2013-12-07 13:27:00,60.1,31.4,27.33,SE,135,0.4,2.5,34,0.00,,,0.00,WUHU216HW,2013-12-07 20:27:00,
2013-12-07 13:32:00,60.1,30.7,27.33,WSW,248,0.7,2.5,33,0.00,,,0.00,WUHU216HW,2013-12-07 20:32:00,
2013-12-07 13:37:00,60.1,32.1,27.33,SE,135,1.1,2.5,35,0.00,,,0.00,WUHU216HW,2013-12-07 20:37:00,
2013-12-07 13:42:00,59.9,30.6,27.33,SSE,158,2.0,2.7,33,0.00,,,0.00,WUHU216HW,2013-12-07 20:42:00,
2013-12-07 13:47:00,59.4,30.2,27.33,SSE,158,1.1,2.7,33,0.00,,,0.00,WUHU216HW,2013-12-07 20:47:00,
2013-12-07 13:52:00,59.0,29.8,27.33,South,180,1.8,3.4,33,0.00,,,0.00,WUHU216HW,2013-12-07 20:52:00,
2013-12-07 13:57:00,59.4,31.5,27.32,SE,135,0.2,3.4,35,0.00,,,0.00,WUHU216HW,2013-12-07 20:57:00,
2013-12-07 14:02:00,60.1,31.4,27.32,North,0,0.7,2.5,34,0.00,,,0.00,WUHU216HW,2013-12-07 21:02:00,
2013-12-07 14:07:00,59.9,30.6,27.32,SSW,203,1.8,3.1,33,0.00,,,0.00,WUHU216HW,2013-12-07 21:07:00,
2013-12-07 14:12:00,59.4,29.4,27.32,SE,135,2.9,3.4,32,0.00,,,0.00,WUHU216HW,2013-12-07 21:12:00,
2013-12-07 14:17:00,59.4,29.4,27.32,SE,135,2.9,3.4,32,0.00,,,0.00,WUHU216HW,2013-12-07 21:17:00,
2013-12-07 14:22:00,59.2,29.3,27.32,SE,135,0.4,3.4,32,0.00,,,0.00,WUHU216HW,2013-12-07 21:22:00,
2013-12-07 14:27:00,59.2,28.5,27.32,SE,135,1.8,2.9,31,0.00,,,0.00,WUHU216HW,2013-12-07 21:27:00,
2013-12-07 14:32:00,59.2,29.3,27.32,SSE,158,1.3,2.7,32,0.00,,,0.00,WUHU216HW,2013-12-07 21:32:00,
2013-12-07 14:37:00,59.4,28.7,27.32,South,180,2.0,3.4,31,0.00,,,0.00,WUHU216HW,2013-12-07 21:37:00,
2013-12-07 14:42:00,59.0,27.7,27.32,South,180,2.7,4.9,30,0.00,,,0.00,WUHU216HW,2013-12-07 21:42:00,
2013-12-07 14:47:00,58.9,28.3,27.31,SE,135,1.1,4.9,31,0.00,,,0.00,WUHU216HW,2013-12-07 21:47:00,
2013-12-07 14:52:00,59.0,28.5,27.31,SSE,158,0.2,3.6,31,0.00,,,0.00,WUHU216HW,2013-12-07 21:52:00,
2013-12-07 14:57:00,59.2,27.9,27.32,SSE,158,1.3,3.4,30,0.00,,,0.00,WUHU216HW,2013-12-07 21:57:00,
2013-12-07 15:02:00,59.2,27.9,27.31,ESE,113,1.6,2.0,30,0.00,,,0.00,WUHU216HW,2013-12-07 22:02:00,
2013-12-07 15:07:00,59.0,25.7,27.31,SSE,158,1.8,2.5,28,0.00,,,0.00,WUHU216HW,2013-12-07 22:07:00,
2013-12-07 15:12:00,58.7,25.5,27.31,ESE,113,0.4,3.6,28,0.00,,,0.00,WUHU216HW,2013-12-07 22:12:00,
2013-12-07 15:17:00,58.9,25.7,27.31,South,180,0.4,3.6,28,0.00,,,0.00,WUHU216HW,2013-12-07 22:17:00,
2013-12-07 15:22:00,58.7,25.5,27.31,ESE,113,1.8,3.4,28,0.00,,,0.00,WUHU216HW,2013-12-07 22:22:00,
2013-12-07 15:27:00,59.0,26.7,27.31,NNE,23,1.8,3.4,29,0.00,,,0.00,WUHU216HW,2013-12-07 22:27:00,
2013-12-07 15:32:00,59.2,25.9,27.31,ESE,113,2.9,2.9,28,0.00,,,0.00,WUHU216HW,2013-12-07 22:32:00,
2013-12-07 15:37:00,59.4,25.1,27.31,SSE,158,1.3,2.9,27,0.00,,,0.00,WUHU216HW,2013-12-07 22:37:00,
2013-12-07 15:42:00,59.4,26.1,27.31,South,180,1.6,2.7,28,0.00,,,0.00,WUHU216HW,2013-12-07 22:42:00,
2013-12-07 15:47:00,59.2,23.9,27.31,SSW,203,2.5,4.7,26,0.00,,,0.00,WUHU216HW,2013-12-07 22:47:00,
2013-12-07 15:52:00,59.0,24.9,27.31,SE,135,3.8,4.7,27,0.00,,,0.00,WUHU216HW,2013-12-07 22:52:00,
2013-12-07 15:57:00,58.9,24.7,27.31,SSE,158,2.5,4.9,27,0.00,,,0.00,WUHU216HW,2013-12-07 22:57:00,
2013-12-07 16:02:00,58.7,25.5,27.31,SSW,203,2.7,4.9,28,0.00,,,0.00,WUHU216HW,2013-12-07 23:02:00,
2013-12-07 16:07:00,58.7,25.5,27.31,SW,225,1.8,4.5,28,0.00,,,0.00,WUHU216HW,2013-12-07 23:07:00,
2013-12-07 16:12:00,58.7,25.5,27.31,SSE,158,2.5,4.3,28,0.00,,,0.00,WUHU216HW,2013-12-07 23:12:00,
2013-12-07 16:17:00,58.3,25.1,27.31,SSE,158,3.4,4.0,28,0.00,,,0.00,WUHU216HW,2013-12-07 23:17:00,
2013-12-07 16:22:00,58.3,26.1,27.31,SE,135,3.4,4.0,29,0.00,,,0.00,WUHU216HW,2013-12-07 23:22:00,
2013-12-07 16:27:00,58.1,25.9,27.31,South,180,1.3,3.4,29,0.00,,,0.00,WUHU216HW,2013-12-07 23:27:00,
2013-12-07 16:32:00,57.8,25.7,27.31,SSE,158,2.0,3.8,29,0.00,,,0.00,WUHU216HW,2013-12-07 23:32:00,
2013-12-07 16:37:00,57.8,26.6,27.30,East,90,1.1,3.8,30,0.00,,,0.00,WUHU216HW,2013-12-07 23:37:00,
2013-12-07 16:42:00,57.8,26.6,27.30,South,180,1.3,2.7,30,0.00,,,0.00,WUHU216HW,2013-12-07 23:42:00,
2013-12-07 16:47:00,57.6,25.5,27.31,SSE,158,1.1,3.4,29,0.00,,,0.00,WUHU216HW,2013-12-07 23:47:00,
2013-12-07 16:52:00,57.2,25.1,27.31,WSW,248,2.0,3.4,29,0.00,,,0.00,WUHU216HW,2013-12-07 23:52:00,
2013-12-07 16:57:00,56.9,24.9,27.31,SSE,158,1.1,3.1,29,0.00,,,0.00,WUHU216HW,2013-12-07 23:57:00,
2013-12-07 17:02:00,56.5,25.5,27.31,SE,135,0.9,3.1,30,0.00,,,0.00,WUHU216HW,2013-12-08 00:02:00,
2013-12-07 17:07:00,56.5,25.5,27.31,SE,135,1.1,2.7,30,0.00,,,0.00,WUHU216HW,2013-12-08 00:07:00,
2013-12-07 17:12:00,56.2,25.1,27.31,SE,135,1.1,2.7,30,0.00,,,0.00,WUHU216HW,2013-12-08 00:12:00,
2013-12-07 17:17:00,55.8,25.5,27.31,SSE,158,0.0,2.0,31,0.00,,,0.00,WUHU216HW,2013-12-08 00:17:00,
2013-12-07 17:22:00,55.4,25.2,27.32,SSE,158,0.4,1.1,31,0.00,,,0.00,WUHU216HW,2013-12-08 00:22:00,
2013-12-07 17:27:00,55.1,24.9,27.32,SE,135,1.6,1.6,31,0.00,,,0.00,WUHU216HW,2013-12-08 00:27:00,
2013-12-07 17:32:00,54.5,25.1,27.32,SE,135,0.4,1.6,32,0.00,,,0.00,WUHU216HW,2013-12-08 00:32:00,
2013-12-07 17:37:00,54.2,24.1,27.32,South,180,0.7,1.6,31,0.00,,,0.00,WUHU216HW,2013-12-08 00:37:00,
2013-12-07 17:42:00,53.8,24.6,27.32,SE,135,0.4,0.9,32,0.00,,,0.00,WUHU216HW,2013-12-08 00:42:00,
2013-12-07 17:47:00,53.5,24.2,27.32,South,180,0.0,0.9,32,0.00,,,0.00,WUHU216HW,2013-12-08 00:47:00,
2013-12-07 17:52:00,53.1,24.6,27.32,SSE,158,0.0,0.7,33,0.00,,,0.00,WUHU216HW,2013-12-08 00:52:00,
2013-12-07 17:57:00,52.9,25.1,27.32,SSW,203,0.0,0.7,34,0.00,,,0.00,WUHU216HW,2013-12-08 00:57:00,
2013-12-07 18:02:00,52.4,26.0,27.33,SSW,203,0.0,0.4,36,0.00,,,0.00,WUHU216HW,2013-12-08 01:02:00,
2013-12-07 18:07:00,52.0,25.7,27.33,SSW,203,0.0,0.4,36,0.00,,,0.00,WUHU216HW,2013-12-08 01:07:00,
2013-12-07 18:12:00,51.5,26.6,27.33,SSW,203,0.0,1.1,38,0.00,,,0.00,WUHU216HW,2013-12-08 01:12:00,
2013-12-07 18:17:00,50.9,26.7,27.33,NNE,23,0.0,1.1,39,0.00,,,0.00,WUHU216HW,2013-12-08 01:17:00,
2013-12-07 18:22:00,50.6,27.1,27.33,NNE,23,0.0,0.9,40,0.00,,,0.00,WUHU216HW,2013-12-08 01:22:00,
2013-12-07 18:27:00,50.4,26.3,27.33,SSW,203,1.1,1.1,39,0.00,,,0.00,WUHU216HW,2013-12-08 01:27:00,
2013-12-07 18:32:00,50.2,26.8,27.33,SE,135,0.0,1.8,40,0.00,,,0.00,WUHU216HW,2013-12-08 01:32:00,
2013-12-07 18:37:00,50.0,25.9,27.34,SSE,158,0.0,1.8,39,0.00,,,0.00,WUHU216HW,2013-12-08 01:37:00,
2013-12-07 18:42:00,49.9,25.8,27.34,NNE,23,0.2,0.7,39,0.00,,,0.00,WUHU216HW,2013-12-08 01:42:00,
2013-12-07 18:47:00,49.7,25.7,27.34,NNE,23,0.0,0.4,39,0.00,,,0.00,WUHU216HW,2013-12-08 01:47:00,
2013-12-07 18:52:00,49.5,25.5,27.34,NNE,23,0.0,0.4,39,0.00,,,0.00,WUHU216HW,2013-12-08 01:52:00,
2013-12-07 18:57:00,49.1,25.8,27.34,NNE,23,0.0,0.0,40,0.00,,,0.00,WUHU216HW,2013-12-08 01:57:00,
2013-12-07 19:02:00,49.0,25.7,27.35,NNE,23,0.0,0.0,40,0.00,,,0.00,WUHU216HW,2013-12-08 02:02:00,
2013-12-07 19:07:00,48.8,26.0,27.35,North,0,0.2,0.2,41,0.00,,,0.00,WUHU216HW,2013-12-08 02:07:00,
2013-12-07 19:12:00,48.6,26.5,27.35,East,90,0.2,0.9,42,0.00,,,0.00,WUHU216HW,2013-12-08 02:12:00,
2013-12-07 19:17:00,48.4,25.8,27.35,SE,135,0.0,0.9,41,0.00,,,0.00,WUHU216HW,2013-12-08 02:17:00,
2013-12-07 19:22:00,48.4,26.3,27.35,ENE,68,0.0,0.9,42,0.00,,,0.00,WUHU216HW,2013-12-08 02:22:00,
2013-12-07 19:27:00,48.2,26.1,27.35,ENE,68,0.0,0.4,42,0.00,,,0.00,WUHU216HW,2013-12-08 02:27:00,
2013-12-07 19:32:00,47.9,25.7,27.35,SE,135,0.4,0.7,42,0.00,,,0.00,WUHU216HW,2013-12-08 02:32:00,
2013-12-07 19:37:00,47.9,25.7,27.36,SE,135,0.0,1.3,42,0.00,,,0.00,WUHU216HW,2013-12-08 02:37:00,
2013-12-07 19:42:00,47.9,25.7,27.36,ESE,113,0.0,1.3,42,0.00,,,0.00,WUHU216HW,2013-12-08 02:42:00,
2013-12-07 19:47:00,47.9,25.7,27.36,ENE,68,1.1,1.1,42,0.00,,,0.00,WUHU216HW,2013-12-08 02:47:00,
2013-12-07 19:52:00,47.7,25.7,27.36,SSW,203,1.8,2.5,42,0.00,,,0.00,WUHU216HW,2013-12-08 02:52:00,
2013-12-07 19:57:00,47.5,25.5,27.36,SE,135,1.1,2.5,42,0.00,,,0.00,WUHU216HW,2013-12-08 02:57:00,
2013-12-07 20:02:00,47.5,24.9,27.36,SE,135,1.1,2.2,41,0.00,,,0.00,WUHU216HW,2013-12-08 03:02:00,
2013-12-07 20:07:00,47.5,24.9,27.36,SSE,158,1.8,2.5,41,0.00,,,0.00,WUHU216HW,2013-12-08 03:07:00,
2013-12-07 20:12:00,47.5,24.9,27.37,East,90,1.1,2.7,41,0.00,,,0.00,WUHU216HW,2013-12-08 03:12:00,
2013-12-07 20:17:00,47.5,24.9,27.37,South,180,1.1,2.7,41,0.00,,,0.00,WUHU216HW,2013-12-08 03:17:00,
2013-12-07 20:22:00,47.2,25.1,27.37,SE,135,0.9,2.5,42,0.00,,,0.00,WUHU216HW,2013-12-08 03:22:00,
2013-12-07 20:27:00,47.0,24.9,27.37,SE,135,1.1,2.0,42,0.00,,,0.00,WUHU216HW,2013-12-08 03:27:00,
2013-12-07 20:32:00,46.8,24.9,27.38,South,180,2.0,2.0,42,0.00,,,0.00,WUHU216HW,2013-12-08 03:32:00,
2013-12-07 20:37:00,46.4,24.5,27.38,SE,135,0.7,2.0,42,0.00,,,0.00,WUHU216HW,2013-12-08 03:37:00,
2013-12-07 20:42:00,46.4,24.5,27.38,SE,135,0.9,2.5,42,0.00,,,0.00,WUHU216HW,2013-12-08 03:42:00,
2013-12-07 20:47:00,46.3,24.3,27.38,SE,135,0.7,2.5,42,0.00,,,0.00,WUHU216HW,2013-12-08 03:47:00,
2013-12-07 20:52:00,46.1,24.1,27.38,SE,135,0.7,2.2,42,0.00,,,0.00,WUHU216HW,2013-12-08 03:52:00,
2013-12-07 20:57:00,45.9,24.6,27.38,SE,135,1.1,1.8,43,0.00,,,0.00,WUHU216HW,2013-12-08 03:57:00,
2013-12-07 21:02:00,45.9,24.6,27.38,SSE,158,0.9,1.8,43,0.00,,,0.00,WUHU216HW,2013-12-08 04:02:00,
2013-12-07 21:07:00,45.7,24.4,27.38,SE,135,0.0,2.0,43,0.00,,,0.00,WUHU216HW,2013-12-08 04:07:00,
2013-12-07 21:12:00,45.7,24.4,27.38,SE,135,0.4,2.0,43,0.00,,,0.00,WUHU216HW,2013-12-08 04:12:00,
2013-12-07 21:17:00,45.5,24.2,27.38,SE,135,0.4,1.3,43,0.00,,,0.00,WUHU216HW,2013-12-08 04:17:00,
2013-12-07 21:22:00,45.4,24.0,27.38,SE,135,0.4,1.3,43,0.00,,,0.00,WUHU216HW,2013-12-08 04:22:00,
2013-12-07 21:27:00,45.4,24.0,27.38,SE,135,0.0,0.9,43,0.00,,,0.00,WUHU216HW,2013-12-08 04:27:00,
2013-12-07 21:32:00,45.2,24.4,27.38,ESE,113,0.7,1.1,44,0.00,,,0.00,WUHU216HW,2013-12-08 04:32:00,
2013-12-07 21:37:00,45.2,24.4,27.38,SSE,158,0.9,1.6,44,0.00,,,0.00,WUHU216HW,2013-12-08 04:37:00,
2013-12-07 21:42:00,45.0,24.9,27.38,South,180,0.9,2.2,45,0.00,,,0.00,WUHU216HW,2013-12-08 04:42:00,
2013-12-07 21:47:00,44.8,24.7,27.38,South,180,1.8,2.2,45,0.00,,,0.00,WUHU216HW,2013-12-08 04:47:00,
2013-12-07 21:52:00,44.8,25.2,27.38,SSE,158,0.4,2.5,46,0.00,,,0.00,WUHU216HW,2013-12-08 04:52:00,
2013-12-07 21:57:00,44.8,25.2,27.38,SE,135,0.7,2.5,46,0.00,,,0.00,WUHU216HW,2013-12-08 04:57:00,
2013-12-07 22:01:00,44.8,25.2,27.38,SE,135,0.0,1.8,46,0.00,,,0.00,WUHU216HW,2013-12-08 05:01:00,
2013-12-07 22:02:00,44.6,25.0,27.38,SE,135,0.0,1.8,46,0.00,,,0.00,WUHU216HW,2013-12-08 05:02:00,
2013-12-07 22:07:00,44.5,24.8,27.38,SE,135,0.0,0.7,46,0.00,,,0.00,WUHU216HW,2013-12-08 05:07:00,
2013-12-07 22:12:00,44.3,24.7,27.38,SE,135,0.0,0.0,46,0.00,,,0.00,WUHU216HW,2013-12-08 05:12:00,
2013-12-07 22:17:00,44.1,25.1,27.38,SE,135,0.0,0.0,47,0.00,,,0.00,WUHU216HW,2013-12-08 05:17:00,
2013-12-07 22:22:00,43.7,24.8,27.39,SE,135,0.0,0.0,47,0.00,,,0.00,WUHU216HW,2013-12-08 05:22:00,
2013-12-07 22:27:00,43.6,25.1,27.39,SE,135,0.0,0.0,48,0.00,,,0.00,WUHU216HW,2013-12-08 05:27:00,
2013-12-07 22:32:00,43.4,24.9,27.39,South,180,0.0,1.1,48,0.00,,,0.00,WUHU216HW,2013-12-08 05:32:00,
2013-12-07 22:37:00,43.7,25.3,27.39,North,0,1.1,3.8,48,0.00,,,0.00,WUHU216HW,2013-12-08 05:37:00,
2013-12-07 22:42:00,44.1,25.7,27.40,NE,45,0.4,3.8,48,0.00,,,0.00,WUHU216HW,2013-12-08 05:42:00,
2013-12-07 22:47:00,44.6,26.1,27.40,East,90,1.1,2.0,48,0.00,,,0.00,WUHU216HW,2013-12-08 05:47:00,
2013-12-07 22:52:00,45.0,26.5,27.40,ENE,68,0.0,2.0,48,0.00,,,0.00,WUHU216HW,2013-12-08 05:52:00,
2013-12-07 22:57:00,45.4,27.3,27.40,East,90,1.1,2.7,49,0.00,,,0.00,WUHU216HW,2013-12-08 05:57:00,
2013-12-07 23:02:00,45.7,27.6,27.40,NW,315,0.4,3.4,49,0.00,,,0.00,WUHU216HW,2013-12-08 06:02:00,
2013-12-07 23:07:00,45.9,27.8,27.40,NNE,23,1.8,3.4,49,0.00,,,0.00,WUHU216HW,2013-12-08 06:07:00,
2013-12-07 23:12:00,46.1,27.4,27.40,WNW,293,0.4,2.7,48,0.00,,,0.00,WUHU216HW,2013-12-08 06:12:00,
2013-12-07 23:17:00,46.1,27.9,27.40,NE,45,0.4,4.0,49,0.00,,,0.00,WUHU216HW,2013-12-08 06:17:00,
2013-12-07 23:22:00,45.9,27.8,27.40,East,90,0.0,4.0,49,0.00,,,0.00,WUHU216HW,2013-12-08 06:22:00,
2013-12-07 23:27:00,45.7,27.6,27.40,ESE,113,0.0,1.8,49,0.00,,,0.00,WUHU216HW,2013-12-08 06:27:00,
2013-12-07 23:32:00,45.4,27.3,27.40,East,90,0.0,1.8,49,0.00,,,0.00,WUHU216HW,2013-12-08 06:32:00,
2013-12-07 23:37:00,45.0,27.0,27.40,East,90,0.0,1.8,49,0.00,,,0.00,WUHU216HW,2013-12-08 06:37:00,
2013-12-07 23:42:00,45.0,27.6,27.40,East,90,0.0,0.0,50,0.00,,,0.00,WUHU216HW,2013-12-08 06:42:00,
2013-12-07 23:47:00,44.8,27.4,27.40,East,90,0.0,0.0,50,0.00,,,0.00,WUHU216HW,2013-12-08 06:47:00,
2013-12-07 23:52:00,44.6,27.2,27.40,NE,45,0.4,0.4,50,0.00,,,0.00,WUHU216HW,2013-12-08 06:52:00,
2013-12-07 23:57:00,44.5,27.9,27.40,NNE,23,0.9,0.9,52,0.00,,,0.00,WUHU216HW,2013-12-08 06:57:00,